| time (UTC) | temp C | wind direction | speed KPH | gust KPH | rain 1hr cm | rain 24hr cm | rain mn cm | humidity % | barometer mb |
| 20260510061016 | 17 | 203 | 4.8 | 12.9 | 0.00 | 0.03 | 0.00 | 76 | 1016.2 |
| 20260510060516 | 17 | 203 | 4.8 | 8.0 | 0.00 | 0.03 | 0.00 | 76 | 1016.4 |
| 20260510060016 | 17 | 203 | 4.8 | 11.3 | 0.00 | 0.03 | 0.00 | 76 | 1016.4 |
| 20260510055516 | 18 | 203 | 4.8 | 8.0 | 0.00 | 0.03 | 0.00 | 76 | 1016.4 |
| 20260510055016 | 18 | 203 | 4.8 | 12.9 | 0.00 | 0.03 | 0.00 | 76 | 1016.3 |
| 20260510054516 | 18 | 180 | 4.8 | 9.7 | 0.00 | 0.03 | 0.00 | 75 | 1016.4 |
| 20260510054016 | 18 | 203 | 4.8 | 11.3 | 0.00 | 0.03 | 0.00 | 75 | 1016.5 |
| 20260510053016 | 18 | 203 | 4.8 | 12.9 | 0.00 | 0.03 | 0.00 | 75 | 1016.6 |
| 20260510052516 | 18 | 203 | 4.8 | 16.1 | 0.00 | 0.03 | 0.00 | 75 | 1016.5 |
| 20260510052016 | 18 | 203 | 6.4 | 12.9 | 0.00 | 0.03 | 0.00 | 74 | 1016.5 |
| 20260510051515 | 18 | 203 | 4.8 | 9.7 | 0.00 | 0.03 | 0.00 | 74 | 1016.5 |
| 20260510051017 | 18 | 203 | 4.8 | 9.7 | 0.00 | 0.03 | 0.00 | 74 | 1016.2 |
| 20260510050536 | 18 | 203 | 4.8 | 14.5 | 0.00 | 0.03 | 0.00 | 74 | 1016.2 |
| 20260510050016 | 18 | 203 | 4.8 | 8.0 | 0.00 | 0.03 | 0.03 | 73 | 1016.2 |
| 20260510045556 | 18 | 203 | 4.8 | 11.3 | 0.00 | 0.03 | 0.03 | 73 | 1016.1 |
| 20260510045116 | 18 | 203 | 6.4 | 11.3 | 0.00 | 0.03 | 0.03 | 73 | 1016.1 |
| 20260510044516 | 18 | 203 | 6.4 | 14.5 | 0.00 | 0.03 | 0.03 | 73 | 1016.1 |
| 20260510044036 | 18 | 203 | 6.4 | 11.3 | 0.00 | 0.03 | 0.03 | 73 | 1016.0 |
| 20260510043515 | 18 | 180 | 6.4 | 14.5 | 0.00 | 0.03 | 0.03 | 73 | 1015.9 |
| 20260510043056 | 18 | 203 | 4.8 | 12.9 | 0.00 | 0.03 | 0.03 | 73 | 1015.9 |
| 20260510042516 | 18 | 203 | 6.4 | 16.1 | 0.00 | 0.03 | 0.03 | 72 | 1015.7 |
| 20260510042036 | 18 | 203 | 4.8 | 8.0 | 0.00 | 0.03 | 0.03 | 71 | 1015.8 |
| 20260510041536 | 18 | 203 | 4.8 | 12.9 | 0.00 | 0.03 | 0.03 | 71 | 1015.8 |
| 20260510041016 | 18 | 203 | 4.8 | 8.0 | 0.00 | 0.03 | 0.03 | 70 | 1015.7 |
| 20260510040516 | 18 | 203 | 4.8 | 11.3 | 0.00 | 0.03 | 0.03 | 69 | 1015.8 |
| 20260510040036 | 18 | 203 | 4.8 | 9.7 | 0.00 | 0.03 | 0.03 | 68 | 1015.5 |
| 20260510035516 | 18 | 180 | 3.2 | 8.0 | 0.00 | 0.03 | 0.03 | 67 | 1015.5 |
| 20260510035056 | 18 | 203 | 4.8 | 9.7 | 0.00 | 0.03 | 0.03 | 67 | 1015.5 |
| 20260510034516 | 19 | 203 | 3.2 | 9.7 | 0.00 | 0.03 | 0.03 | 66 | 1015.3 |
| 20260510034016 | 19 | 203 | 4.8 | 16.1 | 0.00 | 0.03 | 0.03 | 66 | 1015.2 |
| 20260510033518 | 19 | 203 | 4.8 | 9.7 | 0.00 | 0.03 | 0.03 | 65 | 1015.2 |
| 20260510033018 | 19 | 203 | 3.2 | 9.7 | 0.00 | 0.03 | 0.03 | 65 | 1015.0 |
| 20260510032518 | 19 | 203 | 3.2 | 8.0 | 0.00 | 0.03 | 0.03 | 64 | 1015.1 |
| 20260510032018 | 19 | 203 | 3.2 | 9.7 | 0.00 | 0.03 | 0.03 | 64 | 1014.9 |
| 20260510031517 | 19 | 203 | 3.2 | 11.3 | 0.00 | 0.03 | 0.03 | 65 | 1014.9 |
| 20260510031058 | 19 | 180 | 3.2 | 8.0 | 0.00 | 0.03 | 0.03 | 64 | 1014.9 |
| 20260510030523 | 19 | 203 | 3.2 | 8.0 | 0.00 | 0.03 | 0.03 | 64 | 1014.8 |
| 20260510030018 | 19 | 203 | 3.2 | 8.0 | 0.00 | 0.03 | 0.03 | 64 | 1014.6 |
| 20260510025518 | 19 | 203 | 3.2 | 8.0 | 0.00 | 0.03 | 0.03 | 64 | 1014.5 |
| 20260510025038 | 19 | 203 | 3.2 | 11.3 | 0.00 | 0.03 | 0.03 | 63 | 1014.5 |
| 20260510024518 | 19 | 180 | 3.2 | 8.0 | 0.00 | 0.05 | 0.03 | 62 | 1014.5 |
| 20260510024017 | 19 | 180 | 3.2 | 6.4 | 0.00 | 0.05 | 0.03 | 60 | 1014.4 |
| 20260510023518 | 19 | 203 | 3.2 | 4.8 | 0.00 | 0.05 | 0.03 | 58 | 1014.2 |
| 20260510023018 | 19 | 180 | 3.2 | 4.8 | 0.00 | 0.05 | 0.03 | 57 | 1014.2 |
| 20260510022518 | 20 | 180 | 3.2 | 6.4 | 0.00 | 0.05 | 0.03 | 56 | 1013.9 |
| 20260510022018 | 19 | 203 | 3.2 | 8.0 | 0.00 | 0.05 | 0.03 | 55 | 1013.9 |
| 20260510021538 | 19 | 180 | 1.6 | 4.8 | 0.00 | 0.05 | 0.03 | 54 | 1013.5 |
| 20260510021018 | 19 | 180 | 3.2 | 6.4 | 0.00 | 0.05 | 0.03 | 53 | 1013.5 |
| 20260510020518 | 19 | 180 | 3.2 | 8.0 | 0.00 | 0.05 | 0.03 | 53 | 1013.5 |
| 20260510020017 | 19 | 203 | 1.6 | 4.8 | 0.00 | 0.05 | 0.03 | 53 | 1013.4 |
| 20260510015517 | 19 | 248 | 1.6 | 3.2 | 0.00 | 0.05 | 0.03 | 53 | 1013.4 |
| 20260510015018 | 19 | 225 | 1.6 | 3.2 | 0.03 | 0.05 | 0.03 | 53 | 1013.3 |
| 20260510014517 | 19 | 0.0 | 3.2 | 0.03 | 0.05 | 0.03 | 53 | 1013.2 | |
| 20260510014018 | 19 | 0.0 | 3.2 | 0.03 | 0.05 | 0.03 | 53 | 1013.2 | |
| 20260510013517 | 19 | 0.0 | 3.2 | 0.03 | 0.05 | 0.03 | 53 | 1013.1 | |
| 20260510013018 | 20 | 0.0 | 1.6 | 0.03 | 0.05 | 0.03 | 53 | 1013.1 | |
| 20260510012517 | 20 | 0.0 | 1.6 | 0.03 | 0.05 | 0.03 | 52 | 1013.2 | |
| 20260510012017 | 20 | 0.0 | 0.0 | 0.03 | 0.05 | 0.03 | 51 | 1013.0 | |
| 20260510011517 | 20 | 0.0 | 1.6 | 0.03 | 0.05 | 0.03 | 50 | 1013.1 | |
| 20260510011038 | 20 | 0.0 | 1.6 | 0.03 | 0.05 | 0.03 | 49 | 1013.1 | |
| 20260510010517 | 20 | 0.0 | 1.6 | 0.03 | 0.05 | 0.03 | 48 | 1012.9 | |
| 20260510010018 | 20 | 0.0 | 3.2 | 0.03 | 0.05 | 0.03 | 49 | 1012.8 | |
| 20260510005517 | 21 | 0.0 | 1.6 | 0.03 | 0.05 | 0.03 | 49 | 1012.8 | |
| 20260510005017 | 21 | 0.0 | 1.6 | 0.00 | 0.03 | 0.00 | 49 | 1012.8 | |
| 20260510004517 | 21 | 0.0 | 1.6 | 0.00 | 0.03 | 0.00 | 49 | 1012.8 | |
| 20260510004017 | 21 | 0.0 | 1.6 | 0.00 | 0.03 | 0.00 | 47 | 1012.8 | |
| 20260510003517 | 21 | 0.0 | 0.0 | 0.00 | 0.03 | 0.00 | 46 | 1012.8 | |
| 20260510003017 | 21 | 0.0 | 0.0 | 0.00 | 0.03 | 0.00 | 49 | 1013.0 | |
| 20260510002517 | 21 | 0.0 | 0.0 | 0.00 | 0.03 | 0.00 | 47 | 1013.0 | |
| 20260510002017 | 22 | 0.0 | 0.0 | 0.00 | 0.03 | 0.00 | 48 | 1013.0 | |
| 20260510001517 | 22 | 0.0 | 0.0 | 0.00 | 0.03 | 0.00 | 47 | 1012.9 | |
| 20260510001017 | 22 | 0.0 | 0.0 | 0.00 | 0.03 | 0.00 | 47 | 1012.9 | |
| 20260510000517 | 22 | 0.0 | 1.6 | 0.00 | 0.03 | 0.00 | 48 | 1012.8 | |
| 20260510000017 | 22 | 0.0 | 0.0 | 0.00 | 0.03 | 0.00 | 50 | 1012.8 | |
| 20260509235517 | 22 | 0.0 | 0.0 | 0.00 | 0.03 | 0.00 | 49 | 1013.0 | |
| 20260509235017 | 22 | 0.0 | 1.6 | 0.00 | 0.03 | 0.00 | 48 | 1013.0 | |
| 20260509234517 | 22 | 0.0 | 0.0 | 0.00 | 0.03 | 0.00 | 48 | 1013.0 | |
| 20260509234017 | 23 | 0.0 | 0.0 | 0.00 | 0.03 | 0.00 | 46 | 1013.0 | |
| 20260509233517 | 23 | 0.0 | 1.6 | 0.00 | 0.03 | 0.00 | 46 | 1013.0 | |
| 20260509233017 | 23 | 0.0 | 1.6 | 0.00 | 0.03 | 0.00 | 48 | 1013.1 | |
| 20260509232517 | 23 | 0.0 | 1.6 | 0.00 | 0.03 | 0.00 | 50 | 1013.1 | |
| 20260509232037 | 23 | 0.0 | 3.2 | 0.00 | 0.03 | 0.00 | 45 | 1013.1 | |
| 20260509231517 | 23 | 0.0 | 0.0 | 0.00 | 0.03 | 0.00 | 46 | 1013.2 | |
| 20260509231037 | 23 | 0.0 | 1.6 | 0.00 | 0.03 | 0.00 | 46 | 1013.3 | |
| 20260509230517 | 23 | 0.0 | 1.6 | 0.00 | 0.03 | 0.00 | 45 | 1013.3 | |
| 20260509230017 | 23 | 0.0 | 0.0 | 0.00 | 0.03 | 0.00 | 46 | 1013.3 | |
| 20260509225517 | 23 | 0.0 | 1.6 | 0.00 | 0.03 | 0.00 | 45 | 1013.3 | |
| 20260509225017 | 23 | 0.0 | 1.6 | 0.00 | 0.03 | 0.00 | 46 | 1013.2 | |
| 20260509224517 | 24 | 0.0 | 1.6 | 0.00 | 0.03 | 0.00 | 44 | 1013.2 | |
| 20260509224017 | 24 | 0.0 | 1.6 | 0.00 | 0.03 | 0.00 | 42 | 1013.1 | |
| 20260509223517 | 24 | 0.0 | 1.6 | 0.00 | 0.03 | 0.00 | 42 | 1013.1 | |
| 20260509223018 | 24 | 0.0 | 1.6 | 0.00 | 0.03 | 0.00 | 46 | 1013.1 | |
| 20260509222517 | 24 | 0.0 | 1.6 | 0.00 | 0.03 | 0.00 | 43 | 1013.1 | |
| 20260509222037 | 24 | 0.0 | 1.6 | 0.00 | 0.03 | 0.00 | 43 | 1013.0 | |
| 20260509221517 | 24 | 0.0 | 3.2 | 0.00 | 0.03 | 0.00 | 43 | 1013.1 | |
| 20260509221018 | 24 | 0.0 | 1.6 | 0.00 | 0.03 | 0.00 | 42 | 1013.1 | |
| 20260509220537 | 24 | 0.0 | 3.2 | 0.00 | 0.03 | 0.00 | 42 | 1013.2 | |
| 20260509220017 | 24 | 0.0 | 3.2 | 0.00 | 0.03 | 0.00 | 40 | 1013.1 | |
| 20260509215517 | 24 | 0.0 | 3.2 | 0.00 | 0.03 | 0.00 | 40 | 1013.1 | |
| 20260509215017 | 25 | 203 | 1.6 | 8.0 | 0.00 | 0.03 | 0.00 | 38 | 1013.2 |
| 20260509214517 | 25 | 158 | 1.6 | 3.2 | 0.00 | 0.03 | 0.00 | 40 | 1013.3 |
| 20260509214017 | 25 | 338 | 1.6 | 1.6 | 0.00 | 0.03 | 0.00 | 41 | 1013.1 |
| 20260509213517 | 25 | 0.0 | 3.2 | 0.00 | 0.03 | 0.00 | 43 | 1013.2 | |
| 20260509213017 | 25 | 203 | 1.6 | 6.4 | 0.00 | 0.03 | 0.00 | 37 | 1013.1 |
| 20260509212517 | 25 | 0.0 | 1.6 | 0.00 | 0.03 | 0.00 | 42 | 1013.2 | |
| 20260509212017 | 25 | 0.0 | 1.6 | 0.00 | 0.03 | 0.00 | 41 | 1013.2 | |
| 20260509211517 | 25 | 0.0 | 1.6 | 0.00 | 0.03 | 0.00 | 46 | 1013.3 | |
| 20260509211017 | 25 | 0.0 | 1.6 | 0.00 | 0.03 | 0.00 | 40 | 1013.2 | |
| 20260509210517 | 25 | 248 | 1.6 | 3.2 | 0.00 | 0.03 | 0.00 | 40 | 1013.2 |
| 20260509210020 | 25 | 0.0 | 3.2 | 0.00 | 0.03 | 0.00 | 43 | 1013.4 | |
| 20260509205517 | 25 | 0 | 1.6 | 4.8 | 0.00 | 0.03 | 0.00 | 42 | 1013.4 |
| 20260509205017 | 26 | 0 | 1.6 | 4.8 | 0.00 | 0.03 | 0.00 | 37 | 1013.4 |
| 20260509204517 | 26 | 293 | 1.6 | 3.2 | 0.00 | 0.03 | 0.00 | 38 | 1013.4 |
| 20260509204017 | 26 | 270 | 1.6 | 4.8 | 0.00 | 0.03 | 0.00 | 40 | 1013.6 |
| 20260509203519 | 26 | 203 | 1.6 | 8.0 | 0.00 | 0.03 | 0.00 | 38 | 1013.5 |
| 20260509203018 | 25 | 0.0 | 1.6 | 0.00 | 0.03 | 0.00 | 46 | 1013.5 | |
| 20260509202517 | 25 | 23 | 1.6 | 3.2 | 0.00 | 0.03 | 0.00 | 44 | 1013.5 |
| 20260509202037 | 25 | 225 | 1.6 | 4.8 | 0.00 | 0.03 | 0.00 | 44 | 1013.7 |
| 20260509201521 | 25 | 203 | 1.6 | 4.8 | 0.00 | 0.03 | 0.00 | 40 | 1013.6 |
| 20260509201017 | 25 | 225 | 1.6 | 4.8 | 0.00 | 0.03 | 0.00 | 40 | 1013.7 |
| 20260509200517 | 25 | 248 | 1.6 | 6.4 | 0.00 | 0.03 | 0.00 | 42 | 1013.8 |
| 20260509200037 | 25 | 225 | 3.2 | 8.0 | 0.00 | 0.03 | 0.00 | 40 | 1013.9 |
| 20260509195517 | 25 | 338 | 1.6 | 3.2 | 0.00 | 0.03 | 0.00 | 41 | 1014.0 |
| 20260509195017 | 25 | 0.0 | 1.6 | 0.00 | 0.03 | 0.00 | 38 | 1014.0 | |
| 20260509194517 | 25 | 203 | 1.6 | 3.2 | 0.00 | 0.03 | 0.00 | 38 | 1014.0 |
| 20260509194017 | 25 | 338 | 1.6 | 3.2 | 0.00 | 0.03 | 0.00 | 39 | 1014.1 |
| 20260509193517 | 25 | 45 | 1.6 | 6.4 | 0.00 | 0.03 | 0.00 | 39 | 1014.1 |
| 20260509193017 | 25 | 23 | 1.6 | 3.2 | 0.00 | 0.03 | 0.00 | 43 | 1014.2 |
| 20260509192517 | 25 | 0.0 | 3.2 | 0.00 | 0.03 | 0.00 | 43 | 1014.1 | |
| 20260509192018 | 25 | 248 | 1.6 | 4.8 | 0.00 | 0.03 | 0.00 | 40 | 1014.2 |
| 20260509191537 | 25 | 225 | 1.6 | 3.2 | 0.00 | 0.03 | 0.00 | 42 | 1014.2 |
| 20260509191017 | 25 | 203 | 1.6 | 8.0 | 0.00 | 0.03 | 0.00 | 36 | 1014.0 |
| 20260509190517 | 25 | 0.0 | 1.6 | 0.00 | 0.03 | 0.00 | 41 | 1014.2 | |
| 20260509190017 | 25 | 0.0 | 3.2 | 0.00 | 0.03 | 0.00 | 42 | 1014.6 | |
| 20260509185517 | 25 | 23 | 1.6 | 3.2 | 0.00 | 0.03 | 0.00 | 42 | 1014.3 |
| 20260509185017 | 25 | 315 | 1.6 | 3.2 | 0.00 | 0.03 | 0.00 | 41 | 1014.2 |
| 20260509184517 | 25 | 270 | 1.6 | 4.8 | 0.00 | 0.03 | 0.00 | 39 | 1014.3 |
| 20260509184017 | 25 | 0 | 1.6 | 4.8 | 0.00 | 0.03 | 0.00 | 42 | 1014.3 |
| 20260509183537 | 25 | 248 | 1.6 | 4.8 | 0.00 | 0.03 | 0.00 | 38 | 1014.3 |
| 20260509183037 | 25 | 180 | 1.6 | 3.2 | 0.00 | 0.03 | 0.00 | 43 | 1014.3 |
| 20260509182517 | 25 | 135 | 1.6 | 3.2 | 0.00 | 0.03 | 0.00 | 36 | 1014.3 |
| 20260509182017 | 24 | 0.0 | 3.2 | 0.00 | 0.03 | 0.00 | 39 | 1014.4 | |
| 20260509181537 | 24 | 225 | 1.6 | 4.8 | 0.00 | 0.03 | 0.00 | 41 | 1014.4 |
| 20260509181017 | 24 | 180 | 1.6 | 4.8 | 0.00 | 0.03 | 0.00 | 36 | 1014.4 |
| 20260509180517 | 24 | 0.0 | 3.2 | 0.00 | 0.03 | 0.00 | 37 | 1014.5 | |
| 20260509180017 | 24 | 0.0 | 3.2 | 0.00 | 0.03 | 0.00 | 40 | 1014.6 | |
| 20260509175517 | 23 | 248 | 1.6 | 6.4 | 0.00 | 0.03 | 0.00 | 41 | 1014.3 |
| 20260509175017 | 23 | 248 | 1.6 | 6.4 | 0.00 | 0.03 | 0.00 | 43 | 1014.3 |
| 20260509174517 | 23 | 293 | 1.6 | 4.8 | 0.00 | 0.03 | 0.00 | 43 | 1014.2 |
| 20260509174017 | 23 | 225 | 1.6 | 4.8 | 0.00 | 0.03 | 0.00 | 39 | 1014.2 |
| 20260509173517 | 23 | 270 | 1.6 | 6.4 | 0.00 | 0.03 | 0.00 | 42 | 1014.4 |
| 20260509173038 | 23 | 293 | 1.6 | 6.4 | 0.00 | 0.03 | 0.00 | 39 | 1014.4 |
| 20260509172537 | 23 | 203 | 1.6 | 3.2 | 0.00 | 0.03 | 0.00 | 44 | 1014.5 |
| 20260509172017 | 23 | 225 | 1.6 | 4.8 | 0.00 | 0.03 | 0.00 | 43 | 1014.6 |
| 20260509171517 | 24 | 0.0 | 3.2 | 0.00 | 0.03 | 0.00 | 47 | 1014.7 | |
| 20260509171037 | 24 | 0.0 | 3.2 | 0.00 | 0.03 | 0.00 | 51 | 1014.6 | |
| 20260509170517 | 23 | 203 | 1.6 | 3.2 | 0.00 | 0.03 | 0.00 | 50 | 1014.6 |
| 20260509170017 | 23 | 0.0 | 3.2 | 0.00 | 0.03 | 0.00 | 49 | 1014.6 | |
| 20260509165517 | 23 | 0.0 | 4.8 | 0.00 | 0.03 | 0.00 | 45 | 1014.6 | |
| 20260509165017 | 23 | 0.0 | 3.2 | 0.00 | 0.03 | 0.00 | 53 | 1014.6 | |
| 20260509164517 | 23 | 338 | 1.6 | 3.2 | 0.00 | 0.03 | 0.00 | 48 | 1014.5 |
| 20260509164017 | 23 | 0.0 | 3.2 | 0.00 | 0.03 | 0.00 | 49 | 1014.5 | |
| 20260509163517 | 22 | 23 | 1.6 | 3.2 | 0.00 | 0.03 | 0.00 | 49 | 1014.5 |
| 20260509163017 | 22 | 0.0 | 3.2 | 0.00 | 0.03 | 0.00 | 52 | 1014.5 | |
| 20260509162517 | 22 | 0.0 | 3.2 | 0.00 | 0.03 | 0.00 | 53 | 1014.4 | |
| 20260509162037 | 22 | 0.0 | 3.2 | 0.00 | 0.03 | 0.00 | 54 | 1014.4 | |
| 20260509161557 | 21 | 0.0 | 1.6 | 0.00 | 0.03 | 0.00 | 57 | 1014.2 | |
| 20260509161016 | 21 | 338 | 1.6 | 3.2 | 0.00 | 0.03 | 0.00 | 60 | 1014.2 |
| 20260509160517 | 21 | 338 | 1.6 | 4.8 | 0.00 | 0.03 | 0.00 | 55 | 1014.2 |
| 20260509160017 | 20 | 0.0 | 3.2 | 0.00 | 0.03 | 0.00 | 55 | 1014.0 | |
| 20260509155537 | 20 | 0.0 | 3.2 | 0.00 | 0.03 | 0.00 | 57 | 1014.0 | |
| 20260509155057 | 20 | 0.0 | 1.6 | 0.00 | 0.03 | 0.00 | 64 | 1014.1 | |
| 20260509154516 | 20 | 0.0 | 1.6 | 0.00 | 0.03 | 0.00 | 65 | 1014.0 | |
| 20260509154017 | 19 | 0.0 | 0.0 | 0.00 | 0.03 | 0.00 | 67 | 1013.9 | |
| 20260509153517 | 19 | 0.0 | 1.6 | 0.00 | 0.03 | 0.00 | 66 | 1013.9 | |
| 20260509153016 | 18 | 0.0 | 4.8 | 0.00 | 0.03 | 0.00 | 64 | 1013.7 | |
| 20260509152517 | 18 | 0.0 | 1.6 | 0.00 | 0.03 | 0.00 | 66 | 1013.7 | |
| 20260509152017 | 18 | 0.0 | 1.6 | 0.00 | 0.03 | 0.00 | 72 | 1013.8 | |
| 20260509151516 | 18 | 0.0 | 0.0 | 0.00 | 0.03 | 0.00 | 75 | 1013.6 | |
| 20260509151037 | 18 | 0.0 | 1.6 | 0.00 | 0.03 | 0.00 | 72 | 1013.5 | |
| 20260509150516 | 18 | 0.0 | 3.2 | 0.00 | 0.03 | 0.00 | 74 | 1013.6 | |
| 20260509150017 | 17 | 0.0 | 4.8 | 0.00 | 0.03 | 0.00 | 75 | 1013.5 | |
| 20260509145516 | 17 | 158 | 1.6 | 4.8 | 0.00 | 0.03 | 0.00 | 76 | 1013.6 |
| 20260509145017 | 17 | 0.0 | 3.2 | 0.00 | 0.03 | 0.00 | 77 | 1013.5 | |
| 20260509144516 | 17 | 0.0 | 1.6 | 0.00 | 0.03 | 0.00 | 80 | 1013.7 | |
| 20260509144017 | 17 | 0.0 | 1.6 | 0.00 | 0.03 | 0.00 | 80 | 1013.8 | |
| 20260509143557 | 17 | 0.0 | 1.6 | 0.00 | 0.03 | 0.00 | 82 | 1013.8 | |
| 20260509143016 | 17 | 0.0 | 1.6 | 0.00 | 0.03 | 0.00 | 83 | 1013.8 | |
| 20260509142516 | 17 | 0.0 | 1.6 | 0.00 | 0.03 | 0.00 | 83 | 1013.8 | |
| 20260509142016 | 17 | 203 | 1.6 | 6.4 | 0.00 | 0.03 | 0.00 | 83 | 1013.8 |
| 20260509141516 | 17 | 180 | 1.6 | 8.0 | 0.00 | 0.03 | 0.00 | 82 | 1013.7 |
| 20260509141017 | 16 | 203 | 1.6 | 3.2 | 0.00 | 0.03 | 0.00 | 82 | 1013.7 |
| 20260509140537 | 16 | 0.0 | 3.2 | 0.00 | 0.03 | 0.00 | 82 | 1013.7 | |
| 20260509140016 | 16 | 0.0 | 1.6 | 0.00 | 0.03 | 0.00 | 83 | 1013.4 | |
| 20260509135516 | 16 | 0.0 | 4.8 | 0.00 | 0.03 | 0.00 | 84 | 1013.4 | |
| 20260509135016 | 16 | 0.0 | 3.2 | 0.00 | 0.03 | 0.00 | 85 | 1013.3 | |
| 20260509134516 | 16 | 0.0 | 3.2 | 0.00 | 0.03 | 0.00 | 85 | 1013.3 | |
| 20260509134016 | 16 | 0.0 | 3.2 | 0.00 | 0.03 | 0.00 | 85 | 1013.4 | |
| 20260509133517 | 16 | 0.0 | 3.2 | 0.00 | 0.03 | 0.00 | 85 | 1013.3 | |
| 20260509133016 | 16 | 0.0 | 3.2 | 0.00 | 0.03 | 0.00 | 83 | 1013.3 | |
| 20260509132516 | 15 | 0.0 | 3.2 | 0.00 | 0.03 | 0.00 | 82 | 1012.9 | |
| 20260509132016 | 15 | 0.0 | 3.2 | 0.00 | 0.03 | 0.00 | 83 | 1012.8 | |
| 20260509131517 | 15 | 0.0 | 3.2 | 0.00 | 0.03 | 0.00 | 83 | 1012.7 | |
| 20260509131016 | 15 | 0.0 | 1.6 | 0.00 | 0.03 | 0.00 | 84 | 1012.8 | |
| 20260509130516 | 15 | 0.0 | 1.6 | 0.00 | 0.03 | 0.00 | 84 | 1012.8 | |
| 20260509130016 | 15 | 0.0 | 1.6 | 0.00 | 0.03 | 0.00 | 85 | 1012.8 | |
| 20260509125516 | 15 | 0.0 | 1.6 | 0.00 | 0.03 | 0.00 | 85 | 1012.7 | |
| 20260509125036 | 15 | 0.0 | 1.6 | 0.00 | 0.03 | 0.00 | 86 | 1012.7 | |
| 20260509124516 | 15 | 0.0 | 3.2 | 0.00 | 0.03 | 0.00 | 85 | 1012.6 | |
| 20260509124016 | 15 | 0.0 | 3.2 | 0.00 | 0.03 | 0.00 | 86 | 1012.8 | |
| 20260509123516 | 15 | 0.0 | 3.2 | 0.00 | 0.03 | 0.00 | 86 | 1012.6 | |
| 20260509123016 | 15 | 0.0 | 4.8 | 0.00 | 0.03 | 0.00 | 86 | 1012.5 | |
| 20260509122516 | 15 | 0.0 | 3.2 | 0.00 | 0.03 | 0.00 | 86 | 1012.5 | |
| 20260509122036 | 15 | 248 | 1.6 | 4.8 | 0.00 | 0.03 | 0.00 | 87 | 1012.6 |
| 20260509121516 | 15 | 0.0 | 3.2 | 0.00 | 0.03 | 0.00 | 86 | 1012.5 | |
| 20260509121016 | 15 | 270 | 1.6 | 6.4 | 0.00 | 0.03 | 0.00 | 87 | 1012.4 |
| 20260509120516 | 15 | 293 | 1.6 | 8.0 | 0.00 | 0.03 | 0.00 | 87 | 1012.4 |
| 20260509120016 | 15 | 0.0 | 6.4 | 0.00 | 0.03 | 0.00 | 88 | 1012.4 | |
| 20260509115556 | 15 | 270 | 1.6 | 3.2 | 0.00 | 0.03 | 0.00 | 88 | 1012.3 |
| 20260509115016 | 15 | 0.0 | 1.6 | 0.00 | 0.03 | 0.00 | 88 | 1012.4 | |
| 20260509114516 | 15 | 0.0 | 3.2 | 0.00 | 0.03 | 0.00 | 87 | 1012.4 | |
| 20260509114016 | 15 | 270 | 1.6 | 6.4 | 0.00 | 0.03 | 0.00 | 87 | 1012.4 |
| 20260509113516 | 15 | 270 | 1.6 | 3.2 | 0.00 | 0.03 | 0.00 | 87 | 1012.3 |
| 20260509113016 | 15 | 270 | 1.6 | 6.4 | 0.00 | 0.03 | 0.00 | 87 | 1012.2 |
| 20260509112516 | 15 | 293 | 1.6 | 4.8 | 0.00 | 0.03 | 0.00 | 87 | 1012.2 |
| 20260509112016 | 15 | 270 | 1.6 | 12.9 | 0.00 | 0.03 | 0.00 | 87 | 1012.2 |
| 20260509111516 | 15 | 270 | 1.6 | 4.8 | 0.00 | 0.03 | 0.00 | 87 | 1012.1 |
| 20260509111016 | 15 | 315 | 1.6 | 6.4 | 0.00 | 0.03 | 0.00 | 87 | 1012.0 |
| 20260509110516 | 15 | 293 | 3.2 | 11.3 | 0.00 | 0.03 | 0.00 | 87 | 1012.1 |
| 20260509110016 | 15 | 315 | 1.6 | 4.8 | 0.00 | 0.03 | 0.00 | 88 | 1012.0 |
| 20260509105556 | 15 | 270 | 1.6 | 4.8 | 0.00 | 0.03 | 0.00 | 88 | 1012.0 |
| 20260509105036 | 15 | 0.0 | 3.2 | 0.00 | 0.03 | 0.00 | 88 | 1012.0 | |
| 20260509104516 | 15 | 0.0 | 3.2 | 0.00 | 0.03 | 0.00 | 88 | 1012.1 | |
| 20260509104016 | 15 | 293 | 1.6 | 6.4 | 0.00 | 0.03 | 0.00 | 87 | 1012.0 |
| 20260509103516 | 15 | 270 | 1.6 | 6.4 | 0.00 | 0.03 | 0.00 | 87 | 1012.1 |
| 20260509103016 | 15 | 248 | 3.2 | 19.3 | 0.00 | 0.03 | 0.00 | 88 | 1012.1 |
| 20260509102516 | 15 | 203 | 1.6 | 6.4 | 0.00 | 0.03 | 0.00 | 88 | 1012.0 |
| 20260509102016 | 15 | 248 | 1.6 | 9.7 | 0.00 | 0.03 | 0.00 | 87 | 1012.1 |
| 20260509101516 | 15 | 248 | 1.6 | 6.4 | 0.00 | 0.03 | 0.00 | 87 | 1012.1 |
| 20260509101016 | 15 | 248 | 3.2 | 8.0 | 0.00 | 0.03 | 0.00 | 87 | 1012.0 |
| 20260509100516 | 15 | 203 | 3.2 | 8.0 | 0.00 | 0.03 | 0.00 | 88 | 1012.2 |
| 20260509100016 | 15 | 270 | 3.2 | 9.7 | 0.00 | 0.03 | 0.00 | 88 | 1012.2 |
| 20260509095516 | 15 | 270 | 1.6 | 8.0 | 0.00 | 0.03 | 0.00 | 88 | 1012.2 |
| 20260509095016 | 15 | 315 | 3.2 | 8.0 | 0.00 | 0.03 | 0.00 | 88 | 1012.1 |
| 20260509094516 | 15 | 248 | 4.8 | 12.9 | 0.00 | 0.03 | 0.00 | 88 | 1012.2 |
| 20260509094016 | 14 | 158 | 6.4 | 17.7 | 0.00 | 0.03 | 0.00 | 89 | 1012.1 |
| 20260509093536 | 14 | 338 | 1.6 | 6.4 | 0.00 | 0.03 | 0.00 | 89 | 1012.1 |
| 20260509093016 | 14 | 158 | 3.2 | 12.9 | 0.00 | 0.03 | 0.00 | 89 | 1012.1 |
| 20260509092536 | 14 | 180 | 3.2 | 12.9 | 0.00 | 0.03 | 0.00 | 90 | 1012.3 |
| 20260509092016 | 14 | 180 | 3.2 | 11.3 | 0.00 | 0.03 | 0.00 | 90 | 1012.3 |
| 20260509091516 | 13 | 225 | 1.6 | 8.0 | 0.00 | 0.03 | 0.00 | 90 | 1012.3 |
| 20260509091016 | 13 | 248 | 1.6 | 6.4 | 0.00 | 0.03 | 0.00 | 90 | 1012.4 |
| 20260509090516 | 13 | 225 | 1.6 | 6.4 | 0.00 | 0.03 | 0.00 | 90 | 1012.3 |
| 20260509090016 | 13 | 225 | 3.2 | 9.7 | 0.00 | 0.03 | 0.00 | 90 | 1012.4 |
| 20260509085516 | 13 | 248 | 1.6 | 6.4 | 0.00 | 0.03 | 0.00 | 90 | 1012.3 |
| 20260509085016 | 13 | 270 | 3.2 | 14.5 | 0.00 | 0.03 | 0.00 | 90 | 1012.3 |
| 20260509084516 | 13 | 248 | 1.6 | 8.0 | 0.00 | 0.03 | 0.00 | 90 | 1012.3 |
| 20260509084016 | 13 | 248 | 3.2 | 12.9 | 0.00 | 0.03 | 0.00 | 90 | 1012.3 |
| 20260509083516 | 13 | 248 | 1.6 | 6.4 | 0.00 | 0.03 | 0.00 | 90 | 1012.5 |
| 20260509083016 | 13 | 248 | 3.2 | 8.0 | 0.00 | 0.03 | 0.00 | 90 | 1012.4 |
| 20260509082516 | 13 | 225 | 3.2 | 12.9 | 0.00 | 0.03 | 0.00 | 90 | 1012.4 |
| 20260509082016 | 13 | 225 | 1.6 | 4.8 | 0.00 | 0.03 | 0.00 | 90 | 1012.4 |
| 20260509081537 | 13 | 248 | 1.6 | 14.5 | 0.00 | 0.03 | 0.00 | 90 | 1012.4 |
| 20260509081016 | 13 | 225 | 3.2 | 12.9 | 0.00 | 0.03 | 0.00 | 90 | 1012.4 |
| 20260509080516 | 13 | 203 | 3.2 | 11.3 | 0.00 | 0.03 | 0.00 | 90 | 1012.4 |
| 20260509080016 | 13 | 203 | 4.8 | 14.5 | 0.00 | 0.03 | 0.00 | 90 | 1012.5 |
| 20260509075516 | 13 | 248 | 1.6 | 9.7 | 0.00 | 0.03 | 0.00 | 90 | 1012.3 |
| 20260509075036 | 13 | 248 | 4.8 | 11.3 | 0.00 | 0.03 | 0.00 | 90 | 1012.3 |
| 20260509074536 | 13 | 248 | 1.6 | 9.7 | 0.00 | 0.03 | 0.00 | 90 | 1012.3 |
| 20260509074016 | 13 | 248 | 1.6 | 9.7 | 0.00 | 0.03 | 0.00 | 90 | 1012.3 |
| 20260509073516 | 13 | 248 | 1.6 | 8.0 | 0.00 | 0.03 | 0.00 | 89 | 1012.4 |
| 20260509073016 | 13 | 0.0 | 3.2 | 0.00 | 0.03 | 0.00 | 89 | 1012.5 | |
| 20260509072556 | 13 | 113 | 1.6 | 8.0 | 0.00 | 0.03 | 0.00 | 88 | 1012.5 |
| 20260509072016 | 13 | 158 | 1.6 | 11.3 | 0.00 | 0.03 | 0.00 | 88 | 1012.2 |
| 20260509071536 | 13 | 203 | 1.6 | 6.4 | 0.00 | 0.03 | 0.00 | 88 | 1012.3 |
| 20260509071036 | 13 | 248 | 1.6 | 8.0 | 0.00 | 0.03 | 0.00 | 88 | 1012.3 |
| 20260509070516 | 13 | 225 | 3.2 | 14.5 | 0.00 | 0.03 | 0.00 | 88 | 1012.3 |
| 20260509070016 | 13 | 315 | 1.6 | 11.3 | 0.00 | 0.03 | 0.00 | 88 | 1012.2 |
| 20260509065516 | 13 | 225 | 3.2 | 9.7 | 0.00 | 0.03 | 0.00 | 88 | 1012.2 |
| 20260509065016 | 13 | 225 | 1.6 | 8.0 | 0.00 | 0.03 | 0.00 | 88 | 1012.3 |
| 20260509064515 | 13 | 338 | 1.6 | 6.4 | 0.00 | 0.03 | 0.00 | 88 | 1012.3 |
| 20260509064015 | 13 | 248 | 1.6 | 8.0 | 0.00 | 0.03 | 0.00 | 88 | 1012.3 |
| 20260509063515 | 13 | 248 | 1.6 | 6.4 | 0.00 | 0.03 | 0.00 | 88 | 1012.2 |
| 20260509063015 | 14 | 225 | 1.6 | 6.4 | 0.00 | 0.03 | 0.00 | 87 | 1012.3 |
| 20260509062516 | 14 | 203 | 1.6 | 6.4 | 0.00 | 0.03 | 0.00 | 86 | 1012.2 |
| 20260509062016 | 15 | 248 | 1.6 | 4.8 | 0.00 | 0.03 | 0.00 | 85 | 1012.4 |
| 20260509061516 | 15 | 248 | 4.8 | 14.5 | 0.00 | 0.03 | 0.00 | 84 | 1012.4 |